| time (UTC) | temp F | wind direction | speed MPH | gust MPH | rain 1hr in | rain 24hr in | rain mn in | humidity % | barometer mb |
| 20260507000004 | 71 | 355 | 1.0 | 0.0 | 0.00 | 0.00 | 0.00 | 62 | 1013.0 |
| 20260506234503 | 71 | 315 | 1.0 | 0.0 | 0.00 | 0.00 | 0.00 | 61 | 1013.0 |
| 20260506233002 | 72 | 257 | 0.0 | 0.0 | 0.00 | 0.00 | 0.00 | 61 | 1013.1 |
| 20260506231503 | 72 | 278 | 1.0 | 0.0 | 0.00 | 0.00 | 0.00 | 59 | 1013.3 |
| 20260506230059 | 73 | 98 | 0.0 | 0.0 | 0.00 | 0.00 | 0.00 | 58 | 1013.3 |
| 20260506224558 | 73 | 87 | 0.0 | 0.0 | 0.00 | 0.00 | 0.00 | 57 | 1013.4 |
| 20260506223100 | 73 | 34 | 0.0 | 0.0 | 0.00 | 0.00 | 0.00 | 57 | 1013.7 |
| 20260506221554 | 72 | 346 | 0.0 | 0.0 | 0.00 | 0.00 | 0.00 | 57 | 1013.8 |
| 20260506220052 | 72 | 109 | 0.0 | 0.0 | 0.00 | 0.00 | 0.00 | 58 | 1014.1 |
| 20260506214550 | 71 | 51 | 0.0 | 0.0 | 0.00 | 0.00 | 0.00 | 58 | 1014.3 |
| 20260506213046 | 71 | 296 | 0.0 | 0.0 | 0.00 | 0.00 | 0.00 | 60 | 1014.4 |
| 20260506211551 | 70 | 329 | 1.0 | 0.0 | 0.00 | 0.00 | 0.00 | 60 | 1014.6 |
| 20260506210043 | 70 | 5 | 2.0 | 0.0 | 0.00 | 0.00 | 0.00 | 61 | 1014.8 |
| 20260506204541 | 70 | 42 | 1.0 | 0.0 | 0.00 | 0.00 | 0.00 | 62 | 1014.9 |
| 20260506203039 | 69 | 101 | 1.0 | 0.0 | 0.00 | 0.00 | 0.00 | 62 | 1014.9 |
| 20260506201537 | 69 | 60 | 1.0 | 0.0 | 0.00 | 0.00 | 0.00 | 63 | 1015.2 |
| 20260506200034 | 68 | 40 | 1.0 | 0.0 | 0.00 | 0.00 | 0.00 | 65 | 1015.2 |
| 20260506194632 | 68 | 119 | 0.0 | 0.0 | 0.00 | 0.00 | 0.00 | 65 | 1015.4 |
| 20260506193033 | 67 | 299 | 0.0 | 0.0 | 0.00 | 0.00 | 0.00 | 67 | 1015.5 |
| 20260506191526 | 66 | 218 | 1.0 | 0.0 | 0.00 | 0.00 | 0.00 | 71 | 1015.7 |
| 20260506190023 | 64 | 267 | 0.0 | 0.0 | 0.00 | 0.00 | 0.00 | 70 | 1015.7 |
| 20260506184525 | 64 | 37 | 1.0 | 0.0 | 0.00 | 0.00 | 0.00 | 72 | 1015.9 |
| 20260506183019 | 63 | 110 | 0.0 | 0.0 | 0.00 | 0.00 | 0.00 | 71 | 1015.9 |
| 20260506181518 | 63 | 105 | 0.0 | 0.0 | 0.00 | 0.00 | 0.00 | 72 | 1016.0 |
| 20260506180017 | 63 | 154 | 0.0 | 0.0 | 0.00 | 0.00 | 0.00 | 73 | 1016.1 |
| 20260506174513 | 62 | 217 | 0.0 | 0.0 | 0.00 | 0.00 | 0.00 | 75 | 1016.1 |
| 20260506173009 | 59 | 327 | 0.0 | 0.0 | 0.00 | 0.00 | 0.00 | 79 | 1016.1 |
| 20260506171505 | 58 | 183 | 0.0 | 0.0 | 0.00 | 0.00 | 0.00 | 81 | 1016.2 |
| 20260506170008 | 58 | 180 | 0.0 | 0.0 | 0.00 | 0.00 | 0.00 | 81 | 1016.3 |
| 20260506164601 | 57 | 265 | 0.0 | 0.0 | 0.00 | 0.00 | 0.00 | 83 | 1016.3 |
| 20260506163103 | 56 | 244 | 0.0 | 0.0 | 0.00 | 0.00 | 0.00 | 84 | 1016.3 |
| 20260506161610 | 56 | 290 | 0.0 | 0.0 | 0.00 | 0.00 | 0.00 | 85 | 1016.4 |
| 20260506154600 | 55 | 253 | 0.0 | 0.0 | 0.00 | 0.00 | 0.00 | 87 | 1016.3 |
| 20260506153051 | 55 | 225 | 0.0 | 0.0 | 0.00 | 0.00 | 0.00 | 87 | 1016.3 |
| 20260506151548 | 55 | 188 | 0.0 | 0.0 | 0.00 | 0.00 | 0.00 | 88 | 1016.3 |
| 20260506150056 | 54 | 182 | 0.0 | 0.0 | 0.00 | 0.00 | 0.00 | 92 | 1016.3 |
| 20260506144559 | 54 | 144 | 0.0 | 0.0 | 0.00 | 0.00 | 0.00 | 90 | 1016.3 |
| 20260506143050 | 54 | 142 | 0.0 | 0.0 | 0.00 | 0.00 | 0.00 | 89 | 1016.2 |
| 20260506141537 | 54 | 72 | 0.0 | 0.0 | 0.00 | 0.00 | 0.00 | 90 | 1016.2 |
| 20260506140053 | 53 | 72 | 0.0 | 0.0 | 0.00 | 0.00 | 0.00 | 90 | 1016.1 |
| 20260506134534 | 53 | 40 | 0.0 | 0.0 | 0.00 | 0.00 | 0.00 | 90 | 1015.8 |
| 20260506131535 | 53 | 261 | 0.0 | 0.0 | 0.00 | 0.00 | 0.00 | 90 | 1015.4 |
| 20260506130025 | 53 | 267 | 0.0 | 0.0 | 0.00 | 0.00 | 0.00 | 90 | 1015.3 |
| 20260506124524 | 53 | 294 | 0.0 | 0.0 | 0.00 | 0.00 | 0.00 | 89 | 1015.2 |
| 20260506123035 | 53 | 294 | 0.0 | 0.0 | 0.00 | 0.00 | 0.00 | 88 | 1015.2 |
| 20260506121521 | 53 | 294 | 0.0 | 0.0 | 0.00 | 0.00 | 0.00 | 88 | 1015.2 |
| 20260506120029 | 53 | 294 | 0.0 | 0.0 | 0.00 | 0.00 | 0.00 | 89 | 1015.0 |
| 20260506114521 | 53 | 294 | 0.0 | 0.0 | 0.00 | 0.00 | 0.00 | 88 | 1014.9 |
| 20260506113018 | 53 | 294 | 0.0 | 0.0 | 0.00 | 0.00 | 0.00 | 88 | 1014.8 |
| 20260506111517 | 54 | 294 | 0.0 | 0.0 | 0.00 | 0.00 | 0.00 | 88 | 1014.8 |
| 20260506110016 | 54 | 294 | 0.0 | 0.0 | 0.00 | 0.00 | 0.00 | 88 | 1014.7 |
| 20260506104523 | 54 | 294 | 0.0 | 0.0 | 0.00 | 0.00 | 0.00 | 88 | 1014.6 |
| 20260506103016 | 54 | 294 | 0.0 | 0.0 | 0.00 | 0.00 | 0.00 | 87 | 1014.7 |
| 20260506101515 | 54 | 294 | 0.0 | 0.0 | 0.00 | 0.00 | 0.00 | 87 | 1014.7 |
| 20260506100018 | 54 | 294 | 0.0 | 0.0 | 0.00 | 0.00 | 0.00 | 87 | 1014.7 |
| 20260506094514 | 54 | 294 | 0.0 | 0.0 | 0.00 | 0.00 | 0.00 | 87 | 1014.7 |
| 20260506093012 | 54 | 294 | 0.0 | 0.0 | 0.00 | 0.00 | 0.00 | 87 | 1014.8 |
| 20260506091511 | 54 | 294 | 0.0 | 0.0 | 0.00 | 0.00 | 0.00 | 86 | 1014.8 |
| 20260506090010 | 54 | 294 | 0.0 | 0.0 | 0.00 | 0.00 | 0.00 | 86 | 1014.7 |
| 20260506084510 | 54 | 294 | 0.0 | 0.0 | 0.00 | 0.00 | 0.00 | 86 | 1014.7 |
| 20260506083010 | 54 | 294 | 0.0 | 0.0 | 0.00 | 0.00 | 0.00 | 86 | 1014.7 |
| 20260506081513 | 54 | 294 | 0.0 | 0.0 | 0.00 | 0.00 | 0.00 | 86 | 1014.8 |
| 20260506073004 | 54 | 294 | 0.0 | 0.0 | 0.00 | 0.00 | 0.00 | 84 | 1014.4 |
| 20260506071503 | 54 | 294 | 0.0 | 0.0 | 0.00 | 0.00 | 0.00 | 84 | 1014.4 |
| 20260506061557 | 55 | 294 | 0.0 | 0.0 | 0.00 | 0.00 | 0.00 | 83 | 1013.9 |
| 20260506044553 | 55 | 294 | 0.0 | 0.0 | 0.00 | 0.00 | 0.00 | 81 | 1013.3 |
| 20260506043049 | 55 | 293 | 0.0 | 0.0 | 0.00 | 0.00 | 0.00 | 81 | 1013.3 |
| 20260506041548 | 55 | 293 | 0.0 | 0.0 | 0.00 | 0.00 | 0.00 | 81 | 1013.0 |
| 20260506040045 | 55 | 296 | 1.0 | 0.0 | 0.00 | 0.00 | 0.00 | 81 | 1012.8 |
| 20260506034602 | 55 | 284 | 0.0 | 0.0 | 0.00 | 0.00 | 0.00 | 81 | 1012.6 |
| 20260506033042 | 55 | 278 | 1.0 | 0.0 | 0.00 | 0.00 | 0.00 | 81 | 1012.4 |
| 20260506031550 | 55 | 293 | 1.0 | 0.0 | 0.00 | 0.00 | 0.00 | 81 | 1012.2 |
| 20260506030041 | 55 | 279 | 0.0 | 0.0 | 0.00 | 0.00 | 0.00 | 81 | 1012.1 |
| 20260506024548 | 56 | 292 | 0.0 | 0.0 | 0.00 | 0.00 | 0.00 | 81 | 1011.9 |
| 20260506023039 | 56 | 277 | 1.0 | 0.0 | 0.00 | 0.00 | 0.00 | 81 | 1011.7 |
| 20260506021539 | 56 | 267 | 1.0 | 0.0 | 0.00 | 0.00 | 0.00 | 80 | 1011.7 |
| 20260506020038 | 56 | 275 | 0.0 | 0.0 | 0.00 | 0.00 | 0.00 | 80 | 1011.7 |
| 20260506014538 | 56 | 274 | 0.0 | 0.0 | 0.00 | 0.00 | 0.00 | 80 | 1011.8 |
| 20260506013041 | 57 | 287 | 0.0 | 0.0 | 0.00 | 0.00 | 0.00 | 79 | 1011.7 |
| 20260506011543 | 57 | 259 | 1.0 | 0.0 | 0.00 | 0.00 | 0.00 | 79 | 1011.6 |
| 20260506010052 | 57 | 294 | 1.0 | 0.0 | 0.00 | 0.00 | 0.00 | 79 | 1011.6 |
| 20260506004537 | 58 | 276 | 0.0 | 0.0 | 0.00 | 0.00 | 0.00 | 78 | 1011.7 |
| 20260506003036 | 58 | 282 | 0.0 | 0.0 | 0.00 | 0.00 | 0.00 | 77 | 1011.6 |
| 20260506001536 | 58 | 246 | 0.0 | 0.0 | 0.00 | 0.00 | 0.00 | 78 | 1011.4 |